GFSNGP_850_temp_105.txt.gz
Temp
7 8 8 7 7 7 9 9 8 7 7 6 4 3 2 1 0 -0 -1 -2 -2 -1 -1 -1 -0 -0 1 2 3 5 7 9 10 10 10 10 10 10 10 10 10 10 10 10
7 5 7 6 6 9 7 7 7 6 6 4 2 1 0 -0 -1 -1 -1 -2 -2 -2 -2 -1 -1 -1 -0 1 2 3 3 5 6 9 10 10 10 10 10 9 9 9 9 9
6 10 10 6 7 7 6 7 7 6 5 3 1 -1 -2 -2 -2 -2 -2 -3 -3 -3 -3 -2 -1 -1 -1 0 1 2 2 2 2 5 8 9 10 9 9 9 9 9 9 9
8 9 7 4 6 6 4 4 6 5 3 1 -1 -3 -3 -3 -3 -2 -2 -2 -3 -4 -4 -3 -2 -1 -1 -0 0 0 2 1 1 1 3 6 7 8 9 8 8 9 8 8
7 6 7 7 5 4 5 3 3 3 3 -0 -1 -1 -4 -3 -3 -3 -2 -3 -4 -4 -4 -4 -3 -2 -1 -0 -1 0 -1 0 0 -1 0 2 3 3 4 5 4 6 5 5
7 7 6 4 3 3 5 2 1 1 0 1 1 1 -3 -4 -3 -3 -3 -4 -4 -4 -5 -5 -5 -3 -1 -0 -1 -2 -2 -2 -0 -0 -1 -0 0 -0 1 2 1 1 1 2
5 5 4 1 2 3 5 1 0 -1 -1 -2 -3 -3 -4 -4 -4 -4 -4 -4 -4 -5 -6 -5 -5 -4 -4 -3 -2 -2 -3 -2 -1 -2 -0 -1 -0 -1 0 1 1 1 1 1
4 4 3 0 2 2 -0 -1 -1 -1 -2 -3 -4 -4 -3 -3 -3 -3 -3 -4 -5 -6 -7 -7 -6 -6 -5 -5 -5 -4 -3 -2 -2 -2 -2 -2 -1 -1 -1 -0 0 0 0 -0
2 1 -0 -1 -1 -1 -1 -1 -1 -1 -2 -2 -2 -3 -3 -3 -3 -4 -4 -5 -6 -7 -7 -7 -6 -6 -6 -7 -6 -5 -4 -4 -4 -3 -3 -2 -2 -2 -2 -1 -2 -2 -2 -3
1 0 -0 -1 -2 -2 -2 -2 -2 -1 -1 -2 -2 -2 -3 -4 -4 -5 -6 -6 -7 -7 -9 -9 -8 -7 -6 -6 -7 -6 -6 -5 -5 -5 -5 -5 -3 -3 -4 -4 -4 -4 -4 -4
1 -0 -1 -2 -3 -3 -2 -2 -1 -2 -2 -2 -2 -3 -4 -5 -6 -6 -7 -8 -8 -9 -10 -10 -9 -7 -7 -7 -7 -7 -7 -8 -7 -6 -6 -5 -5 -6 -5 -6 -6 -5 -5 -5
-0 -1 -1 -2 -3 -3 -3 -2 -2 -2 -3 -4 -4 -5 -5 -6 -7 -8 -8 -9 -9 -9 -9 -9 -9 -9 -8 -8 -8 -8 -7 -8 -8 -8 -8 -8 -7 -6 -7 -7 -7 -7 -7 -6
-1 -2 -2 -3 -3 -2 -2 -3 -4 -4 -5 -5 -6 -7 -7 -8 -9 -9 -9 -9 -9 -10 -9 -8 -9 -9 -9 -10 -9 -9 -9 -9 -9 -8 -8 -9 -8 -8 -7 -8 -8 -7 -7 -8
-2 -2 -2 -2 -2 -2 -2 -2 -4 -5 -7 -8 -8 -9 -9 -9 -10 -10 -10 -11 -10 -9 -8 -8 -8 -9 -9 -9 -10 -10 -10 -10 -10 -10 -10 -10 -9 -10 -10 -9 -8 -8 -8 -9
-1 -1 -1 -1 -2 -3 -3 -4 -5 -7 -8 -8 -9 -9 -10 -10 -9 -10 -10 -10 -10 -9 -9 -9 -9 -9 -10 -10 -10 -10 -10 -10 -10 -10 -10 -10 -10 -10 -10 -10 -10 -10 -10 -10
-1 -2 -2 -3 -4 -5 -5 -6 -7 -8 -9 -9 -10 -11 -11 -11 -10 -10 -10 -10 -10 -9 -10 -9 -9 -9 -10 -10 -11 -11 -11 -11 -11 -11 -11 -11 -11 -11 -11 -11 -11 -11 -11 -11
-2 -3 -3 -5 -5 -6 -8 -8 -9 -10 -10 -10 -11 -11 -12 -12 -11 -10 -11 -11 -11 -11 -11 -10 -10 -10 -10 -11 -11 -11 -12 -12 -12 -12 -12 -12 -12 -12 -12 -12 -12 -12 -12 -13
-5 -5 -5 -6 -7 -8 -9 -9 -10 -10 -10 -10 -10 -10 -11 -11 -11 -11 -12 -12 -12 -12 -12 -12 -11 -11 -11 -12 -12 -12 -12 -12 -13 -13 -13 -13 -13 -13 -13 -14 -14 -14 -14 -15
-6 -7 -7 -8 -8 -8 -9 -9 -9 -10 -10 -10 -11 -11 -11 -11 -11 -12 -12 -13 -13 -13 -12 -12 -13 -12 -12 -13 -13 -13 -13 -13 -13 -13 -13 -14 -14 -14 -14 -15 -15 -15 -16 -16
-8 -8 -8 -9 -9 -9 -9 -9 -10 -10 -10 -10 -11 -11 -11 -12 -12 -12 -13 -13 -13 -13 -14 -13 -13 -14 -13 -14 -14 -14 -14 -14 -14 -14 -14 -15 -15 -15 -15 -16 -16 -16 -17 -17
-8 -9 -9 -9 -9 -9 -9 -10 -10 -10 -11 -11 -11 -11 -12 -12 -13 -13 -13 -13 -14 -14 -14 -14 -14 -14 -14 -15 -15 -15 -15 -15 -15 -15 -16 -16 -16 -16 -16 -16 -17 -17 -17 -18
-9 -9 -9 -9 -9 -9 -10 -10 -10 -11 -11 -11 -11 -12 -12 -12 -13 -14 -14 -14 -14 -14 -15 -15 -15 -15 -15 -16 -16 -16 -16 -16 -16 -16 -16 -16 -17 -17 -17 -17 -18 -18 -18 -19
-9 -9 -9 -9 -10 -10 -10 -11 -11 -11 -11 -11 -12 -12 -12 -13 -13 -14 -15 -15 -15 -16 -16 -16 -17 -16 -17 -17 -17 -17 -18 -18 -18 -18 -18 -18 -18 -18 -18 -18 -19 -19 -19 -19
-10 -10 -10 -10 -10 -10 -11 -11 -11 -11 -11 -12 -12 -12 -13 -13 -14 -14 -14 -15 -16 -16 -17 -17 -18 -18 -18 -18 -18 -19 -18 -18 -18 -19 -18 -19 -19 -19 -19 -19 -20 -20 -20 -20
-10 -10 -10 -10 -11 -11 -11 -11 -11 -12 -12 -12 -12 -12 -13 -14 -14 -15 -15 -16 -16 -17 -17 -18 -18 -18 -19 -19 -19 -19 -19 -19 -19 -19 -19 -19 -19 -20 -20 -20 -20 -20 -21 -21
-10 -10 -11 -11 -11 -11 -11 -11 -12 -12 -12 -12 -13 -13 -14 -14 -14 -15 -15 -16 -17 -17 -17 -18 -18 -18 -19 -19 -19 -19 -19 -20 -20 -20 -20 -20 -20 -20 -20 -20 -21 -21 -21 -21
-10 -10 -10 -11 -11 -11 -12 -12 -12 -13 -13 -14 -14 -14 -14 -15 -15 -15 -16 -16 -17 -17 -17 -18 -18 -18 -18 -19 -19 -19 -20 -20 -20 -20 -20 -21 -21 -21 -21 -21 -21 -21 -21 -22

GFSNGP_850_temp_108.txt.gz
Temp
6 6 6 6 6 6 7 6 7 5 5 3 2 1 1 -0 -0 -1 -2 -3 -3 -2 -1 -1 -1 -0 1 1 3 3 4 7 9 9 10 11 10 11 11 11 11 11 10 9
6 5 6 5 4 5 5 5 5 4 3 1 -0 -0 -1 -1 -1 -1 -3 -4 -4 -3 -2 -2 -2 -1 -0 0 1 2 2 3 4 7 8 8 10 11 10 10 10 10 10 9
6 6 6 5 4 4 3 4 5 5 2 1 -1 -2 -2 -2 -2 -2 -3 -4 -4 -4 -4 -3 -2 -2 -1 -0 1 1 1 2 3 3 5 6 7 6 10 10 10 10 9 9
6 6 5 3 2 4 3 2 3 3 1 -1 -2 -3 -4 -3 -3 -3 -4 -4 -5 -4 -3 -3 -3 -2 -2 -1 -0 0 0 0 1 2 3 1 3 3 6 7 9 9 9 9
6 6 4 4 3 1 3 2 1 1 1 -1 -3 -2 -4 -4 -3 -4 -4 -5 -5 -5 -5 -4 -3 -3 -2 -1 -0 -0 -0 -0 -1 0 1 1 0 1 1 1 3 2 5 6
5 5 5 2 1 2 3 2 -0 -1 -1 -1 -0 -0 -3 -4 -4 -4 -4 -5 -5 -5 -5 -4 -5 -5 -4 -3 -2 -2 -2 -1 -1 -1 -1 -1 0 0 0 0 0 2 -0 1
4 4 3 -0 1 3 4 1 -1 -2 -3 -3 -3 -4 -4 -4 -4 -4 -5 -5 -5 -6 -6 -6 -5 -5 -5 -4 -4 -4 -3 -2 -1 -1 -1 -1 -1 -1 -0 -0 0 0 -0 0
3 3 2 -1 1 2 -0 -1 -1 -2 -3 -3 -4 -3 -4 -4 -4 -5 -5 -5 -6 -5 -6 -6 -6 -5 -7 -6 -6 -5 -4 -3 -3 -3 -2 -2 -2 -2 -1 -1 -1 -1 0 -0
1 1 -1 -1 -2 -2 -1 -2 -1 -2 -3 -3 -3 -4 -4 -5 -5 -6 -6 -7 -7 -6 -6 -7 -6 -6 -6 -7 -7 -6 -5 -5 -4 -4 -3 -3 -3 -3 -2 -2 -3 -2 -2 -3
-0 -0 -1 -2 -2 -2 -2 -2 -2 -2 -2 -2 -3 -4 -5 -5 -6 -6 -7 -7 -7 -6 -7 -8 -7 -7 -7 -7 -8 -7 -6 -6 -5 -5 -5 -5 -4 -4 -4 -4 -4 -4 -5 -5
-0 -1 -2 -3 -3 -3 -2 -2 -2 -2 -2 -3 -3 -5 -5 -6 -7 -8 -8 -8 -7 -7 -7 -8 -9 -8 -7 -7 -8 -7 -7 -7 -7 -6 -6 -5 -5 -6 -6 -7 -7 -6 -6 -6
-0 -1 -1 -3 -3 -3 -3 -3 -3 -3 -3 -5 -5 -5 -6 -7 -8 -8 -8 -9 -8 -8 -8 -8 -8 -9 -8 -7 -7 -8 -8 -8 -8 -7 -7 -7 -7 -6 -6 -7 -7 -7 -7 -7
-2 -2 -2 -3 -3 -3 -3 -4 -4 -4 -5 -6 -7 -7 -7 -8 -9 -9 -9 -9 -9 -9 -9 -9 -9 -8 -8 -9 -9 -9 -8 -8 -9 -9 -8 -8 -8 -8 -7 -8 -7 -7 -8 -8
-2 -2 -3 -3 -3 -3 -4 -5 -4 -5 -6 -7 -8 -8 -9 -9 -9 -10 -10 -10 -10 -10 -9 -9 -10 -9 -10 -10 -10 -10 -10 -10 -9 -9 -9 -9 -9 -9 -9 -9 -8 -8 -8 -8
-2 -2 -2 -3 -2 -3 -4 -5 -5 -6 -7 -8 -9 -9 -9 -9 -9 -10 -10 -10 -10 -10 -10 -10 -10 -10 -10 -11 -10 -10 -11 -11 -10 -10 -10 -10 -10 -10 -10 -10 -10 -10 -9 -10
-1 -1 -2 -2 -3 -4 -5 -6 -6 -8 -9 -9 -9 -9 -10 -10 -10 -10 -10 -10 -10 -10 -10 -10 -10 -10 -11 -11 -11 -11 -11 -11 -11 -12 -11 -11 -11 -12 -12 -11 -11 -11 -11 -11
-2 -4 -4 -4 -5 -6 -6 -7 -8 -8 -9 -9 -9 -10 -10 -10 -11 -10 -10 -10 -11 -11 -11 -11 -11 -11 -11 -12 -12 -12 -12 -12 -12 -12 -12 -12 -12 -12 -13 -13 -12 -12 -13 -13
-4 -4 -5 -5 -6 -6 -7 -8 -9 -9 -9 -10 -10 -11 -11 -11 -11 -11 -11 -11 -12 -12 -11 -11 -11 -12 -12 -12 -12 -12 -13 -13 -13 -13 -13 -13 -13 -13 -14 -14 -14 -14 -14 -14
-6 -6 -6 -7 -7 -8 -8 -9 -9 -9 -10 -10 -10 -10 -10 -11 -11 -11 -12 -12 -13 -13 -12 -13 -13 -13 -13 -13 -13 -13 -13 -14 -14 -14 -14 -14 -14 -14 -15 -15 -15 -16 -16 -16
-7 -7 -8 -8 -8 -8 -8 -9 -9 -10 -10 -10 -10 -11 -11 -12 -12 -12 -13 -13 -14 -13 -14 -14 -14 -14 -14 -14 -14 -14 -14 -15 -15 -15 -15 -15 -15 -15 -15 -16 -16 -16 -16 -17
-7 -8 -8 -8 -8 -8 -9 -9 -10 -10 -10 -11 -11 -11 -12 -12 -13 -13 -13 -13 -14 -15 -15 -15 -15 -15 -15 -15 -15 -15 -15 -16 -16 -16 -16 -16 -16 -16 -16 -17 -17 -17 -18 -18
-8 -8 -8 -9 -9 -9 -10 -10 -10 -11 -11 -11 -11 -12 -12 -13 -13 -13 -13 -14 -14 -15 -16 -16 -16 -16 -16 -16 -17 -17 -17 -17 -17 -17 -17 -17 -17 -17 -17 -18 -18 -18 -18 -18
-8 -9 -9 -9 -9 -10 -10 -11 -11 -11 -11 -12 -12 -12 -13 -13 -13 -13 -14 -15 -15 -16 -16 -17 -17 -17 -17 -18 -18 -18 -18 -18 -18 -18 -18 -18 -18 -18 -18 -19 -19 -19 -19 -19
-9 -9 -10 -10 -10 -11 -11 -11 -11 -12 -12 -12 -12 -13 -13 -13 -14 -14 -15 -15 -16 -16 -17 -17 -18 -18 -18 -18 -19 -19 -19 -19 -19 -19 -19 -19 -19 -19 -19 -20 -20 -20 -20 -20
-10 -10 -10 -10 -11 -11 -11 -11 -12 -12 -12 -12 -13 -13 -13 -13 -14 -14 -15 -15 -16 -16 -17 -17 -18 -18 -18 -18 -19 -19 -19 -19 -20 -20 -20 -20 -20 -20 -20 -20 -20 -21 -21 -21
-10 -10 -10 -11 -11 -11 -11 -11 -12 -12 -12 -13 -14 -14 -14 -15 -15 -15 -15 -16 -16 -17 -17 -17 -18 -18 -18 -19 -19 -19 -19 -20 -20 -20 -20 -20 -20 -20 -21 -21 -21 -21 -21 -21
-10 -10 -11 -11 -11 -11 -12 -12 -12 -13 -13 -14 -14 -15 -15 -15 -16 -16 -16 -16 -16 -17 -17 -17 -17 -18 -18 -18 -19 -19 -19 -20 -20 -20 -20 -21 -21 -21 -21 -21 -21 -21 -21 -21

GFSNGP_850_temp_111.txt.gz
Temp
4 4 4 4 5 7 7 5 5 4 3 2 1 0 -1 -1 -1 -3 -4 -4 -4 -3 -3 -2 -1 -1 0 0 1 1 4 5 6 6 7 9 10 10 11 10 11 12 11 10
5 4 4 3 3 3 5 4 3 3 1 -0 -1 -1 -1 -2 -2 -3 -4 -5 -5 -4 -3 -3 -3 -2 -1 -1 -0 1 1 2 4 4 5 7 8 9 9 10 10 10 10 9
5 6 5 4 2 2 3 3 4 4 1 -1 -1 -2 -3 -3 -3 -4 -5 -6 -5 -5 -4 -4 -3 -3 -1 -1 0 0 0 0 1 2 3 4 5 6 6 8 9 9 9 9
6 5 4 2 1 2 2 1 2 1 -0 -1 -3 -4 -4 -4 -4 -5 -6 -6 -6 -5 -5 -4 -4 -3 -2 -0 -0 -0 -0 -0 -0 0 1 1 2 3 3 3 3 7 7 7
6 5 4 3 1 1 2 1 -0 1 -0 -2 -3 -2 -4 -4 -5 -5 -6 -6 -6 -5 -5 -5 -4 -4 -3 -2 -1 -1 -1 -2 -1 -1 -0 0 0 1 1 2 2 1 1 2
5 5 4 1 0 1 2 2 -1 -1 -2 -2 -1 -1 -4 -5 -5 -6 -6 -6 -6 -6 -5 -5 -6 -5 -4 -3 -3 -3 -3 -2 -2 -2 -1 -0 -0 -0 -0 0 0 0 1 1
4 4 2 -0 -0 1 3 1 -1 -2 -3 -4 -3 -4 -5 -5 -5 -6 -6 -7 -7 -6 -6 -6 -6 -5 -5 -4 -4 -4 -4 -3 -3 -3 -2 -2 -2 -1 -1 -0 0 0 0 1
3 2 1 -2 0 1 -0 -2 -2 -3 -3 -4 -4 -5 -5 -5 -6 -6 -7 -7 -7 -7 -7 -7 -6 -6 -6 -6 -6 -5 -5 -4 -3 -4 -3 -3 -3 -3 -2 -2 -1 -1 -2 -1
1 -0 -1 -2 -2 -2 -2 -2 -2 -3 -3 -4 -4 -5 -6 -6 -6 -7 -7 -7 -7 -7 -7 -7 -7 -7 -6 -7 -6 -6 -5 -4 -4 -4 -4 -3 -3 -3 -3 -3 -2 -3 -3 -4
-1 -1 -1 -2 -2 -2 -2 -3 -2 -2 -3 -4 -5 -6 -6 -7 -7 -7 -7 -7 -7 -7 -7 -8 -7 -7 -7 -7 -7 -6 -5 -5 -5 -4 -4 -4 -5 -5 -5 -5 -5 -5 -5 -5
-1 -1 -2 -3 -3 -3 -3 -3 -2 -3 -3 -4 -5 -6 -7 -7 -8 -8 -8 -8 -8 -8 -8 -8 -8 -8 -8 -7 -7 -7 -6 -6 -6 -6 -6 -5 -5 -6 -6 -7 -7 -7 -6 -6
-2 -1 -2 -3 -3 -3 -3 -3 -4 -4 -4 -5 -6 -6 -7 -8 -8 -9 -8 -8 -8 -8 -8 -8 -8 -8 -8 -8 -8 -8 -7 -7 -7 -8 -8 -8 -7 -7 -6 -7 -7 -7 -7 -7
-2 -2 -2 -3 -3 -4 -3 -4 -4 -4 -6 -6 -7 -8 -8 -9 -9 -9 -9 -9 -9 -9 -9 -9 -9 -9 -9 -9 -9 -9 -9 -9 -9 -8 -9 -9 -9 -9 -9 -9 -8 -8 -7 -7
-2 -2 -3 -3 -4 -4 -4 -4 -5 -5 -6 -7 -8 -8 -8 -9 -9 -9 -9 -10 -10 -10 -9 -9 -9 -9 -9 -9 -9 -9 -10 -10 -10 -10 -10 -10 -10 -10 -10 -10 -10 -9 -9 -10
-2 -1 -2 -3 -3 -4 -5 -6 -6 -6 -7 -8 -9 -9 -9 -9 -9 -10 -10 -10 -11 -11 -10 -10 -10 -10 -10 -10 -10 -10 -10 -11 -11 -11 -11 -11 -11 -11 -11 -10 -10 -11 -11 -11
-2 -2 -3 -3 -4 -5 -6 -6 -7 -8 -9 -9 -9 -9 -10 -10 -10 -10 -10 -11 -10 -10 -11 -11 -11 -11 -11 -11 -11 -11 -11 -11 -11 -11 -12 -12 -12 -12 -12 -12 -12 -12 -12 -12
-2 -4 -5 -4 -5 -6 -7 -7 -8 -9 -9 -9 -9 -10 -10 -10 -10 -10 -11 -11 -11 -11 -11 -11 -11 -11 -11 -12 -12 -12 -12 -12 -12 -13 -12 -12 -13 -13 -13 -13 -13 -14 -14 -14
-3 -3 -4 -5 -5 -6 -7 -8 -8 -8 -9 -9 -10 -10 -10 -10 -10 -10 -10 -11 -11 -12 -12 -12 -12 -12 -12 -12 -12 -13 -13 -13 -13 -13 -13 -14 -14 -14 -14 -14 -15 -15 -15 -15
-5 -5 -6 -6 -7 -7 -7 -8 -9 -9 -9 -9 -9 -10 -10 -10 -11 -11 -12 -12 -12 -13 -13 -13 -13 -13 -13 -13 -13 -14 -14 -14 -14 -14 -14 -14 -14 -15 -15 -15 -16 -16 -16 -16
-6 -7 -7 -7 -7 -8 -8 -9 -9 -9 -9 -10 -10 -10 -11 -11 -12 -12 -12 -13 -13 -13 -14 -14 -14 -14 -14 -14 -14 -15 -15 -15 -15 -15 -16 -16 -15 -16 -16 -16 -16 -17 -17 -17
-6 -7 -7 -8 -8 -8 -8 -9 -9 -10 -10 -11 -11 -11 -12 -12 -12 -13 -13 -14 -14 -14 -15 -15 -16 -16 -16 -16 -16 -16 -16 -16 -17 -17 -17 -17 -17 -17 -17 -17 -17 -17 -18 -18
-7 -7 -8 -8 -8 -9 -9 -9 -10 -10 -11 -11 -12 -12 -12 -12 -13 -13 -13 -14 -14 -15 -15 -16 -17 -17 -17 -17 -18 -18 -18 -18 -18 -18 -18 -18 -18 -18 -18 -18 -18 -18 -18 -19
-7 -8 -8 -8 -9 -9 -10 -10 -11 -11 -11 -12 -12 -12 -13 -13 -13 -13 -13 -14 -15 -15 -16 -17 -17 -18 -18 -18 -19 -19 -19 -19 -19 -19 -19 -19 -19 -19 -19 -19 -19 -20 -20 -20
-8 -8 -9 -9 -10 -10 -10 -11 -11 -11 -11 -12 -12 -12 -13 -13 -13 -13 -14 -15 -15 -16 -16 -17 -17 -18 -18 -18 -19 -19 -19 -19 -20 -20 -20 -20 -20 -20 -20 -20 -20 -20 -21 -20
-9 -9 -9 -10 -10 -11 -11 -11 -11 -11 -12 -12 -13 -13 -14 -14 -14 -14 -15 -15 -16 -16 -16 -17 -17 -17 -18 -18 -18 -19 -19 -19 -20 -20 -20 -20 -20 -21 -21 -21 -21 -21 -21 -21
-9 -9 -10 -10 -11 -11 -11 -11 -12 -12 -13 -13 -13 -14 -14 -15 -15 -15 -15 -16 -16 -16 -17 -17 -17 -17 -18 -18 -18 -19 -19 -19 -20 -20 -20 -20 -21 -21 -21 -21 -21 -21 -21 -22
-10 -10 -10 -11 -11 -11 -11 -12 -12 -12 -13 -14 -14 -15 -15 -16 -16 -16 -16 -16 -16 -17 -17 -17 -17 -17 -18 -18 -18 -18 -19 -19 -19 -20 -20 -20 -21 -21 -21 -22 -21 -22 -22 -22

GFSNGP_850_temp_114.txt.gz
Temp
4 3 3 3 4 5 4 4 4 2 1 0 -0 -1 -2 -3 -3 -4 -5 -5 -5 -5 -4 -3 -1 -1 -1 -0 0 1 2 3 3 4 5 7 8 9 10 10 9 10 10 11
5 4 4 2 2 3 3 3 2 1 0 -1 -2 -3 -2 -3 -4 -5 -5 -6 -5 -6 -5 -5 -4 -2 -1 -1 -1 -0 0 1 1 2 4 5 6 7 7 8 9 9 10 9
5 5 5 4 1 1 2 2 3 3 0 -1 -2 -3 -3 -4 -5 -6 -6 -6 -6 -6 -6 -6 -5 -3 -2 -2 -1 -1 -0 -0 0 1 1 2 3 4 4 5 5 6 6 8
6 5 4 2 2 2 1 0 1 0 -1 -2 -3 -4 -4 -5 -6 -7 -7 -7 -6 -6 -5 -5 -5 -4 -3 -2 -2 -1 -1 -1 -0 -0 0 0 1 1 2 3 3 4 4 4
6 4 3 3 1 0 1 0 -1 0 -0 -2 -3 -3 -5 -5 -6 -7 -7 -7 -7 -6 -6 -6 -6 -6 -4 -3 -3 -3 -2 -2 -2 -1 -1 -1 0 0 0 1 1 1 1 2
4 5 3 1 0 0 1 1 -1 -2 -2 -2 -1 -2 -5 -6 -6 -7 -7 -8 -7 -7 -6 -6 -6 -7 -5 -5 -4 -4 -4 -3 -2 -2 -1 -1 -1 -1 -1 -0 -0 -0 0 1
3 3 2 -1 -1 0 3 -0 -2 -3 -4 -4 -4 -5 -6 -6 -6 -7 -7 -7 -7 -7 -7 -7 -6 -6 -6 -6 -6 -5 -4 -4 -3 -2 -2 -2 -2 -2 -2 -1 -1 -1 -1 -2
3 2 2 -2 0 1 -1 -2 -3 -3 -4 -5 -6 -6 -6 -6 -7 -7 -7 -7 -8 -7 -7 -7 -6 -6 -6 -6 -7 -6 -5 -5 -4 -4 -3 -3 -2 -2 -3 -2 -2 -2 -3 -3
0 -0 -2 -2 -2 -2 -2 -2 -3 -3 -4 -4 -5 -6 -6 -6 -7 -7 -7 -8 -7 -7 -7 -7 -7 -6 -6 -7 -6 -6 -6 -5 -5 -5 -4 -4 -3 -4 -4 -4 -3 -3 -3 -3
-0 -1 -2 -3 -3 -3 -2 -2 -3 -3 -4 -4 -5 -6 -6 -7 -7 -7 -7 -8 -8 -8 -8 -8 -8 -8 -7 -7 -7 -7 -6 -6 -6 -5 -5 -5 -5 -5 -4 -5 -6 -6 -6 -5
-1 -2 -3 -4 -4 -3 -3 -3 -3 -3 -4 -5 -5 -6 -7 -7 -8 -8 -8 -8 -8 -8 -9 -9 -8 -8 -8 -8 -7 -7 -7 -7 -8 -7 -7 -7 -7 -7 -8 -8 -8 -8 -8 -7
-1 -1 -2 -3 -4 -4 -3 -4 -4 -4 -5 -6 -6 -7 -8 -8 -8 -9 -9 -9 -8 -9 -9 -9 -9 -9 -9 -8 -8 -8 -8 -9 -9 -9 -9 -9 -9 -9 -9 -9 -9 -8 -8 -8
-2 -2 -3 -4 -4 -4 -4 -4 -5 -5 -6 -6 -7 -8 -8 -9 -9 -10 -9 -9 -9 -9 -9 -9 -9 -9 -9 -9 -9 -9 -9 -9 -9 -9 -9 -9 -9 -9 -9 -10 -9 -9 -9 -8
-2 -3 -3 -4 -4 -4 -4 -5 -6 -6 -7 -8 -8 -9 -9 -9 -10 -10 -10 -10 -10 -10 -10 -10 -10 -9 -10 -10 -10 -10 -10 -10 -10 -10 -11 -11 -11 -11 -10 -10 -10 -10 -10 -10
-2 -2 -2 -3 -4 -5 -5 -6 -6 -7 -8 -8 -9 -9 -9 -10 -10 -10 -10 -10 -11 -10 -10 -10 -10 -10 -10 -10 -11 -11 -11 -11 -11 -11 -11 -12 -12 -12 -12 -11 -11 -12 -12 -11
-2 -2 -3 -4 -5 -5 -6 -7 -7 -8 -9 -9 -9 -10 -10 -10 -10 -11 -11 -11 -11 -11 -11 -11 -11 -11 -11 -11 -11 -11 -11 -12 -12 -12 -13 -13 -13 -13 -13 -13 -13 -13 -13 -13
-3 -5 -5 -5 -6 -6 -7 -7 -8 -8 -9 -9 -9 -10 -10 -10 -10 -11 -11 -11 -12 -12 -12 -12 -12 -12 -12 -12 -12 -12 -13 -13 -13 -13 -13 -14 -14 -14 -14 -14 -14 -15 -15 -15
-3 -4 -4 -5 -5 -6 -7 -8 -8 -8 -9 -9 -9 -10 -10 -10 -10 -11 -11 -12 -13 -13 -13 -13 -13 -13 -13 -13 -13 -13 -14 -14 -14 -14 -14 -14 -14 -15 -15 -15 -15 -16 -16 -16
-4 -4 -5 -6 -6 -7 -7 -7 -8 -8 -9 -9 -9 -10 -10 -11 -11 -12 -12 -13 -13 -13 -13 -14 -14 -14 -13 -13 -14 -14 -15 -15 -15 -15 -15 -15 -15 -16 -16 -16 -16 -17 -17 -17
-6 -6 -6 -6 -7 -7 -8 -8 -9 -9 -9 -10 -10 -11 -11 -12 -12 -12 -13 -13 -13 -13 -14 -14 -14 -14 -14 -15 -15 -15 -16 -16 -16 -16 -16 -16 -16 -17 -17 -17 -17 -17 -18 -18
-6 -7 -7 -8 -8 -8 -8 -9 -9 -10 -10 -11 -11 -11 -12 -12 -12 -13 -13 -13 -14 -14 -14 -15 -15 -15 -16 -16 -16 -17 -17 -18 -18 -18 -18 -18 -18 -18 -17 -17 -18 -18 -19 -19
-7 -7 -8 -8 -8 -8 -9 -9 -10 -10 -11 -11 -11 -12 -12 -12 -13 -13 -13 -14 -14 -14 -15 -15 -15 -16 -17 -17 -17 -18 -19 -19 -19 -19 -19 -19 -19 -19 -19 -19 -19 -19 -19 -20
-7 -7 -8 -8 -9 -9 -10 -10 -11 -11 -11 -12 -12 -12 -12 -13 -13 -14 -13 -14 -14 -15 -15 -15 -16 -17 -17 -18 -18 -18 -19 -19 -19 -19 -20 -20 -20 -20 -20 -20 -20 -20 -20 -20
-7 -8 -8 -9 -9 -10 -10 -11 -11 -11 -11 -12 -12 -12 -13 -13 -13 -14 -15 -15 -15 -15 -16 -16 -16 -17 -17 -18 -18 -18 -19 -19 -19 -20 -20 -20 -20 -20 -20 -21 -21 -21 -21 -21
-8 -8 -8 -9 -10 -10 -10 -11 -11 -12 -12 -12 -13 -13 -14 -14 -15 -15 -15 -15 -15 -16 -16 -16 -17 -17 -17 -18 -18 -18 -18 -19 -19 -20 -20 -20 -21 -21 -21 -21 -21 -21 -21 -21
-8 -9 -10 -10 -10 -11 -11 -11 -11 -12 -12 -13 -13 -14 -15 -15 -15 -15 -16 -16 -16 -16 -16 -16 -17 -17 -17 -18 -18 -18 -18 -18 -19 -19 -20 -20 -20 -21 -21 -21 -21 -22 -22 -22
-9 -10 -10 -10 -11 -11 -11 -11 -12 -13 -13 -13 -14 -15 -15 -16 -16 -16 -16 -16 -16 -17 -17 -17 -17 -17 -17 -18 -18 -18 -18 -18 -18 -19 -19 -20 -20 -21 -21 -21 -22 -22 -22 -22

GFSNGP_850_temp_117.txt.gz
Temp
4 3 4 3 2 4 4 5 4 2 1 -0 -1 -2 -3 -4 -5 -5 -5 -6 -6 -6 -6 -4 -3 -2 -1 -0 -1 -0 1 2 2 3 3 5 6 7 8 8 9 9 9 9
5 4 4 2 2 3 3 3 1 2 0 -1 -3 -3 -4 -5 -5 -5 -6 -7 -7 -7 -7 -6 -4 -3 -2 -1 -1 -0 -0 -0 0 1 2 3 4 4 5 6 6 8 8 8
6 5 5 4 1 1 2 2 3 3 0 -2 -3 -3 -5 -5 -6 -7 -7 -7 -7 -7 -7 -7 -6 -4 -3 -2 -1 -0 -0 -1 -1 -0 0 1 1 2 3 3 4 4 5 5
6 5 5 2 1 1 1 0 1 0 -1 -2 -3 -5 -6 -7 -7 -7 -8 -8 -7 -7 -7 -7 -7 -5 -4 -3 -2 -2 -1 -1 -1 -1 -1 -1 -0 -0 1 1 1 2 3 3
6 5 3 2 1 1 2 0 -1 -0 -0 -2 -4 -3 -6 -8 -8 -8 -9 -8 -7 -7 -6 -7 -7 -7 -5 -4 -3 -3 -3 -2 -2 -1 -1 -1 -1 -1 -1 -0 0 0 0 1
5 5 5 1 -0 -0 1 2 -1 -2 -2 -2 -1 -0 -4 -8 -7 -8 -9 -8 -7 -7 -6 -6 -6 -6 -5 -5 -4 -4 -4 -4 -3 -2 -2 -2 -2 -2 -1 -1 -1 -1 -1 -1
3 4 2 -0 -1 -0 3 1 -2 -3 -3 -3 -3 -5 -7 -7 -7 -8 -8 -7 -7 -7 -7 -7 -6 -6 -5 -5 -6 -6 -5 -4 -4 -4 -3 -3 -3 -2 -2 -2 -2 -1 -1 -1
3 3 3 -1 -0 2 -1 -2 -3 -3 -4 -5 -6 -7 -7 -7 -7 -7 -7 -7 -7 -7 -7 -6 -6 -6 -6 -6 -6 -6 -5 -5 -4 -4 -4 -4 -4 -4 -3 -3 -3 -3 -3 -3
0 0 -2 -2 -2 -2 -2 -2 -3 -4 -5 -5 -6 -7 -7 -8 -8 -8 -8 -8 -8 -8 -8 -7 -7 -7 -7 -7 -7 -7 -7 -6 -6 -5 -5 -4 -4 -4 -4 -4 -4 -5 -5 -5
0 -1 -2 -3 -3 -3 -3 -3 -3 -4 -5 -5 -6 -7 -8 -9 -9 -8 -8 -8 -8 -8 -8 -8 -8 -8 -8 -8 -8 -8 -7 -8 -8 -7 -7 -6 -6 -6 -6 -6 -6 -6 -5 -6
-1 -2 -3 -4 -4 -4 -3 -3 -4 -5 -5 -6 -7 -8 -9 -10 -10 -9 -9 -9 -9 -8 -9 -9 -9 -9 -9 -8 -8 -10 -9 -8 -8 -8 -8 -8 -8 -8 -9 -9 -9 -8 -8 -7
0 -1 -2 -3 -4 -4 -4 -4 -5 -5 -6 -6 -7 -8 -9 -10 -10 -9 -9 -9 -9 -9 -9 -9 -9 -9 -9 -9 -9 -9 -9 -9 -9 -9 -9 -9 -9 -9 -9 -9 -9 -9 -8 -7
-1 -2 -2 -3 -4 -4 -4 -5 -5 -5 -6 -7 -7 -8 -8 -8 -9 -9 -9 -9 -9 -9 -9 -9 -9 -9 -9 -9 -10 -10 -10 -10 -10 -10 -10 -10 -10 -9 -9 -10 -10 -9 -9 -8
-2 -2 -4 -4 -4 -4 -4 -5 -6 -6 -7 -7 -8 -8 -8 -9 -9 -9 -9 -10 -10 -10 -10 -10 -10 -9 -9 -10 -10 -10 -10 -10 -10 -10 -10 -11 -11 -11 -11 -10 -10 -10 -10 -10
-3 -2 -2 -3 -4 -5 -5 -6 -6 -7 -8 -8 -8 -9 -9 -9 -9 -10 -10 -10 -11 -11 -10 -10 -10 -10 -10 -10 -10 -11 -11 -11 -11 -12 -12 -12 -12 -12 -12 -12 -12 -12 -12 -12
-2 -2 -3 -4 -5 -5 -6 -6 -7 -7 -8 -8 -9 -9 -9 -10 -10 -10 -11 -11 -11 -11 -12 -12 -12 -12 -12 -11 -11 -12 -12 -12 -13 -13 -13 -13 -13 -13 -14 -14 -14 -14 -14 -13
-3 -5 -5 -5 -5 -6 -6 -6 -7 -8 -8 -9 -9 -9 -10 -10 -11 -11 -11 -12 -12 -12 -13 -13 -13 -13 -12 -12 -12 -13 -13 -13 -14 -14 -14 -14 -14 -15 -15 -15 -15 -15 -15 -15
-2 -3 -4 -4 -5 -6 -6 -7 -8 -8 -9 -9 -9 -10 -10 -11 -11 -12 -12 -12 -13 -13 -13 -13 -13 -13 -13 -13 -13 -14 -14 -15 -15 -15 -15 -15 -15 -15 -16 -16 -16 -16 -17 -17
-4 -4 -5 -5 -6 -6 -7 -8 -8 -9 -9 -9 -10 -10 -11 -11 -11 -12 -12 -12 -13 -13 -14 -14 -14 -14 -14 -15 -15 -15 -16 -16 -16 -16 -16 -16 -16 -16 -17 -17 -17 -17 -17 -18
-5 -5 -6 -6 -7 -7 -7 -8 -8 -9 -10 -10 -10 -10 -11 -11 -12 -12 -13 -13 -13 -14 -14 -14 -15 -15 -15 -16 -16 -16 -17 -17 -17 -17 -17 -17 -17 -17 -17 -18 -18 -18 -18 -19
-6 -6 -6 -7 -7 -7 -8 -8 -9 -10 -10 -10 -11 -11 -12 -12 -12 -13 -13 -13 -14 -14 -14 -15 -15 -15 -15 -16 -17 -17 -17 -18 -18 -18 -18 -18 -18 -18 -18 -18 -18 -19 -19 -19
-6 -7 -7 -7 -7 -8 -9 -9 -10 -10 -10 -11 -12 -12 -12 -13 -13 -13 -14 -14 -14 -14 -15 -15 -15 -16 -16 -17 -17 -18 -18 -18 -19 -19 -19 -19 -19 -20 -19 -19 -19 -20 -20 -20
-7 -7 -7 -8 -8 -9 -9 -10 -10 -11 -11 -12 -12 -12 -12 -13 -14 -14 -14 -14 -15 -15 -15 -16 -16 -16 -17 -17 -18 -18 -18 -18 -19 -19 -19 -19 -20 -20 -20 -20 -20 -20 -20 -20
-7 -8 -8 -9 -9 -10 -10 -11 -11 -11 -11 -12 -12 -13 -13 -13 -14 -15 -15 -15 -15 -15 -15 -16 -16 -17 -17 -17 -17 -18 -18 -18 -18 -19 -19 -19 -20 -20 -20 -21 -21 -21 -21 -21
-8 -8 -9 -9 -10 -10 -11 -11 -11 -11 -12 -12 -13 -13 -14 -14 -15 -15 -15 -15 -16 -16 -16 -16 -17 -17 -17 -17 -17 -18 -18 -18 -18 -18 -18 -19 -19 -20 -20 -20 -21 -21 -21 -21
-8 -9 -9 -10 -10 -10 -11 -11 -11 -12 -12 -13 -13 -14 -14 -15 -15 -16 -16 -16 -16 -17 -17 -17 -17 -17 -18 -18 -18 -18 -18 -18 -18 -18 -18 -19 -19 -19 -20 -20 -21 -21 -22 -22
-9 -10 -10 -10 -10 -11 -11 -11 -12 -12 -13 -13 -14 -14 -14 -15 -15 -16 -16 -16 -17 -17 -17 -18 -18 -18 -19 -19 -19 -19 -19 -19 -19 -19 -19 -19 -19 -19 -19 -20 -21 -21 -21 -22

GFSNGP_850_temp_120.txt.gz
Temp
6 5 6 5 3 4 5 5 6 3 2 0 -1 -2 -3 -4 -5 -5 -5 -6 -6 -6 -7 -6 -5 -3 -3 -2 -1 -1 -0 0 0 1 2 3 4 5 5 6 7 8 9 9
5 6 5 4 3 5 5 4 3 3 1 -1 -2 -3 -4 -4 -4 -5 -5 -6 -7 -7 -7 -7 -7 -6 -4 -3 -1 -1 -1 -1 -0 0 0 1 2 2 3 3 4 4 6 6
8 6 7 6 2 2 3 4 4 4 1 -1 -1 -3 -5 -5 -5 -5 -6 -7 -8 -8 -8 -7 -7 -6 -4 -5 -4 -2 -2 -1 -1 -0 -0 -0 0 1 1 1 2 2 3 3
8 6 7 3 4 4 3 3 3 3 1 -0 -2 -4 -5 -6 -6 -6 -7 -7 -8 -8 -8 -7 -7 -7 -7 -5 -3 -2 -2 -1 -1 -1 -1 -0 0 0 -0 0 0 0 1 1
7 7 4 3 3 4 4 2 2 2 1 -1 -3 -2 -5 -7 -7 -7 -8 -8 -8 -8 -8 -7 -7 -6 -5 -4 -3 -3 -4 -4 -3 -2 -2 -2 -2 -1 -1 -1 -0 -0 -0 -0
7 7 7 3 2 1 2 3 1 1 1 1 -1 2 -2 -7 -8 -8 -7 -8 -8 -8 -8 -8 -8 -8 -6 -5 -6 -5 -5 -5 -4 -3 -3 -3 -3 -2 -2 -1 -2 -2 -2 -1
6 7 4 1 0 -0 3 2 1 1 1 1 -0 -3 -7 -7 -8 -8 -8 -8 -8 -8 -8 -8 -8 -8 -8 -8 -7 -7 -4 -4 -3 -3 -4 -4 -3 -3 -3 -2 -2 -2 -2 -2
5 6 4 -0 0 2 0 0 -0 -0 -2 -3 -5 -7 -8 -9 -9 -8 -8 -8 -8 -8 -8 -9 -9 -8 -9 -9 -8 -8 -7 -6 -5 -5 -4 -4 -4 -4 -4 -3 -3 -3 -3 -3
3 2 -1 -2 -2 -1 -0 -1 -1 -1 -2 -3 -6 -7 -8 -9 -9 -9 -8 -8 -8 -8 -9 -9 -9 -9 -9 -9 -8 -8 -8 -8 -8 -7 -6 -6 -6 -5 -5 -5 -6 -6 -6 -5
2 -0 -1 -3 -3 -2 -2 -2 -2 -3 -3 -4 -6 -7 -8 -8 -8 -8 -8 -9 -9 -9 -9 -10 -10 -10 -9 -10 -9 -8 -8 -8 -8 -8 -8 -8 -7 -8 -7 -7 -8 -8 -7 -7
-0 -1 -2 -3 -3 -4 -4 -4 -4 -4 -5 -5 -5 -6 -7 -7 -8 -8 -9 -9 -10 -10 -10 -10 -10 -9 -9 -9 -10 -9 -9 -9 -9 -9 -9 -9 -9 -8 -8 -8 -8 -8 -8 -8
2 -1 -1 -2 -4 -4 -4 -4 -5 -5 -6 -6 -6 -7 -8 -8 -9 -9 -10 -10 -10 -11 -11 -10 -9 -9 -8 -8 -10 -10 -10 -10 -10 -10 -10 -10 -10 -10 -10 -10 -10 -10 -9 -9
-1 -2 -3 -4 -4 -5 -5 -5 -6 -6 -7 -8 -8 -8 -8 -9 -10 -10 -10 -11 -11 -11 -11 -10 -10 -9 -9 -9 -10 -10 -12 -11 -11 -11 -11 -11 -12 -12 -12 -12 -11 -10 -10 -9
-2 -3 -4 -4 -4 -5 -6 -7 -7 -8 -8 -9 -9 -10 -10 -11 -11 -11 -10 -11 -11 -11 -10 -10 -10 -10 -10 -10 -10 -10 -11 -12 -12 -12 -12 -12 -13 -13 -13 -13 -13 -13 -11 -10
-2 -2 -2 -4 -5 -6 -6 -7 -7 -8 -9 -9 -10 -10 -10 -10 -9 -9 -10 -10 -10 -10 -10 -10 -10 -10 -10 -10 -10 -10 -12 -13 -13 -13 -13 -13 -13 -13 -13 -13 -13 -14 -14 -13
-3 -3 -4 -4 -5 -6 -6 -7 -7 -8 -9 -10 -10 -9 -9 -9 -9 -10 -10 -10 -11 -11 -11 -11 -11 -11 -11 -11 -11 -13 -14 -14 -14 -14 -13 -13 -13 -14 -14 -14 -14 -14 -15 -16
-3 -3 -4 -4 -5 -6 -7 -8 -8 -8 -8 -8 -9 -9 -9 -10 -10 -10 -11 -11 -11 -11 -12 -12 -13 -12 -12 -12 -12 -15 -15 -14 -15 -14 -14 -14 -14 -14 -14 -15 -15 -15 -16 -17
-2 -3 -3 -4 -6 -6 -6 -7 -7 -7 -8 -8 -9 -9 -10 -10 -11 -11 -11 -11 -12 -12 -13 -13 -13 -13 -13 -13 -13 -16 -16 -15 -15 -15 -15 -15 -15 -15 -15 -15 -15 -16 -16 -17
-3 -4 -5 -5 -5 -5 -6 -6 -7 -7 -8 -9 -9 -9 -10 -11 -11 -11 -12 -12 -13 -13 -14 -14 -14 -14 -14 -14 -15 -16 -16 -16 -16 -16 -16 -16 -16 -16 -16 -16 -16 -16 -17 -17
-4 -5 -5 -5 -5 -6 -6 -7 -7 -8 -8 -9 -10 -10 -11 -11 -12 -12 -12 -13 -13 -13 -14 -14 -14 -15 -15 -15 -15 -17 -17 -17 -17 -17 -17 -17 -17 -17 -17 -17 -17 -17 -17 -18
-5 -5 -5 -6 -6 -7 -7 -8 -8 -8 -9 -10 -10 -11 -12 -12 -12 -12 -13 -13 -13 -14 -14 -15 -15 -16 -16 -16 -17 -17 -17 -18 -18 -18 -18 -18 -18 -18 -18 -18 -18 -18 -18 -18
-5 -6 -6 -6 -7 -7 -8 -8 -9 -9 -10 -11 -11 -12 -12 -12 -12 -13 -14 -14 -14 -15 -15 -16 -16 -16 -16 -16 -17 -17 -17 -18 -18 -18 -18 -18 -18 -19 -19 -19 -19 -19 -19 -19
-6 -6 -7 -7 -7 -8 -8 -9 -10 -10 -11 -11 -11 -12 -12 -13 -14 -14 -14 -15 -15 -15 -15 -16 -16 -16 -16 -17 -17 -17 -17 -18 -18 -18 -18 -18 -18 -19 -19 -19 -19 -19 -19 -20
-7 -7 -8 -8 -8 -9 -9 -10 -11 -11 -11 -11 -12 -12 -13 -13 -14 -14 -15 -15 -16 -15 -16 -16 -16 -17 -17 -17 -17 -17 -18 -18 -18 -18 -18 -18 -19 -18 -19 -19 -20 -20 -20 -20
-7 -8 -8 -8 -9 -10 -11 -11 -11 -12 -12 -13 -13 -13 -13 -14 -14 -15 -16 -16 -16 -16 -17 -17 -17 -17 -17 -18 -18 -18 -19 -19 -19 -19 -19 -19 -18 -18 -19 -19 -19 -20 -20 -20
-8 -8 -9 -9 -10 -11 -11 -11 -11 -12 -12 -12 -13 -14 -15 -15 -15 -16 -17 -17 -17 -17 -18 -18 -19 -18 -19 -19 -19 -19 -19 -19 -19 -19 -20 -20 -20 -20 -19 -19 -19 -20 -20 -20
-9 -10 -11 -11 -11 -11 -11 -11 -12 -12 -13 -13 -14 -15 -15 -15 -16 -16 -17 -18 -18 -19 -19 -20 -20 -21 -20 -20 -21 -21 -21 -21 -21 -21 -21 -21 -20 -20 -20 -20 -20 -20 -20 -21

GFSNGP_850_temp_123.txt.gz
Temp
9 9 8 6 5 6 6 8 7 4 3 1 0 -0 -2 -2 -2 -3 -4 -5 -6 -6 -6 -6 -6 -6 -5 -3 -3 -3 -3 -2 -2 -0 1 2 3 3 4 5 5 5 6 7
6 8 8 5 4 6 6 5 4 5 2 1 0 -1 -2 -2 -2 -3 -4 -5 -6 -7 -7 -7 -7 -6 -6 -5 -4 -3 -1 -1 -2 0 1 1 2 2 3 3 3 4 4 5
9 10 9 7 4 5 6 7 7 7 3 2 1 -0 -3 -3 -3 -4 -4 -5 -7 -7 -7 -7 -7 -7 -7 -6 -3 -2 -1 -1 0 0 0 -0 -1 0 1 1 2 3 3 3
9 8 7 4 7 8 7 6 6 4 3 3 1 -2 -3 -4 -4 -5 -5 -5 -6 -7 -7 -7 -7 -7 -7 -5 -4 -3 -3 -2 -0 -1 -2 -1 -1 -1 -1 -0 -0 0 0 1
8 10 5 4 6 7 7 5 5 4 3 1 -0 -1 -4 -5 -5 -5 -5 -5 -5 -5 -6 -6 -7 -7 -6 -5 -5 -4 -4 -4 -3 -3 -3 -2 -1 -1 -1 -1 -1 -1 -1 -0
9 8 8 4 5 5 6 5 4 4 3 2 1 1 -0 -6 -7 -5 -4 -5 -5 -5 -5 -5 -5 -7 -7 -6 -6 -6 -6 -5 -4 -4 -3 -2 -3 -3 -3 -2 -3 -3 -2 -2
8 8 6 4 3 2 4 4 3 3 3 3 1 -2 -5 -6 -7 -5 -5 -5 -5 -5 -5 -6 -6 -6 -7 -6 -6 -6 -6 -5 -4 -3 -3 -3 -3 -3 -3 -3 -3 -3 -3 -3
8 7 7 2 1 2 2 2 2 2 0 -1 -4 -5 -7 -7 -8 -5 -4 -5 -5 -5 -6 -6 -6 -6 -6 -6 -5 -5 -6 -6 -7 -7 -7 -7 -6 -5 -4 -3 -3 -3 -3 -3
6 3 1 -1 -0 0 -0 -0 0 0 -1 -2 -4 -6 -7 -7 -7 -5 -5 -5 -5 -6 -6 -7 -7 -8 -7 -7 -6 -6 -6 -6 -6 -7 -6 -7 -8 -8 -6 -5 -6 -6 -5 -6
4 2 1 -1 -1 -1 -2 -1 -1 -1 -2 -3 -4 -5 -6 -5 -5 -5 -5 -6 -6 -6 -7 -7 -8 -9 -9 -8 -7 -6 -6 -7 -7 -7 -7 -7 -8 -8 -9 -8 -9 -10 -9 -8
1 1 -1 -2 -2 -2 -3 -3 -2 -2 -2 -2 -3 -3 -4 -4 -5 -5 -6 -6 -7 -7 -8 -8 -9 -9 -9 -9 -9 -8 -8 -8 -8 -8 -8 -8 -8 -9 -10 -9 -9 -9 -9 -11
4 1 0 -2 -3 -3 -3 -4 -3 -3 -4 -4 -4 -4 -5 -5 -6 -6 -7 -7 -8 -8 -9 -10 -10 -8 -8 -7 -8 -9 -9 -9 -9 -9 -9 -9 -9 -9 -9 -10 -11 -11 -11 -10
1 -1 -2 -3 -3 -4 -4 -4 -4 -4 -4 -5 -5 -5 -6 -7 -8 -8 -8 -8 -9 -10 -10 -11 -9 -9 -8 -8 -9 -9 -12 -11 -11 -10 -10 -10 -10 -10 -11 -11 -11 -11 -12 -12
-2 -3 -3 -4 -4 -4 -3 -4 -5 -5 -6 -6 -6 -7 -8 -8 -9 -9 -9 -10 -10 -10 -9 -9 -9 -9 -9 -9 -9 -9 -11 -12 -12 -11 -11 -12 -12 -11 -11 -11 -11 -11 -12 -13
-1 -1 -2 -3 -3 -4 -4 -5 -5 -6 -6 -7 -8 -8 -8 -9 -9 -9 -10 -10 -11 -11 -10 -10 -10 -10 -10 -10 -10 -10 -13 -12 -13 -12 -12 -12 -12 -12 -12 -12 -12 -12 -12 -13
-1 -2 -3 -3 -3 -4 -4 -4 -5 -6 -7 -8 -8 -9 -9 -10 -10 -9 -9 -9 -10 -10 -11 -11 -11 -11 -11 -10 -10 -13 -13 -13 -13 -13 -12 -12 -12 -12 -12 -12 -12 -12 -13 -14
-1 -1 -2 -3 -3 -4 -4 -5 -6 -8 -8 -9 -8 -8 -8 -9 -9 -9 -9 -10 -10 -11 -11 -11 -11 -12 -12 -12 -12 -14 -13 -13 -14 -13 -13 -13 -13 -13 -13 -13 -13 -13 -13 -14
0 -1 -2 -3 -4 -5 -6 -7 -8 -8 -8 -8 -8 -8 -9 -9 -10 -10 -10 -10 -11 -11 -11 -12 -12 -13 -13 -13 -13 -15 -14 -14 -14 -14 -14 -14 -14 -14 -14 -14 -14 -14 -14 -15
-1 -1 -2 -3 -4 -6 -7 -8 -8 -8 -8 -8 -8 -9 -9 -10 -10 -10 -11 -11 -11 -12 -12 -13 -13 -13 -15 -15 -14 -15 -14 -15 -15 -14 -15 -15 -15 -15 -15 -15 -15 -15 -15 -15
-2 -3 -4 -5 -6 -7 -7 -6 -7 -7 -8 -8 -9 -9 -10 -10 -10 -11 -11 -11 -12 -13 -13 -14 -14 -15 -15 -15 -16 -16 -15 -15 -15 -15 -15 -16 -16 -16 -16 -16 -16 -16 -16 -16
-5 -5 -6 -5 -6 -6 -6 -7 -7 -8 -8 -9 -9 -10 -10 -10 -11 -12 -12 -11 -12 -13 -14 -14 -15 -15 -15 -15 -16 -15 -15 -15 -15 -16 -16 -16 -16 -16 -17 -17 -17 -17 -17 -17
-4 -5 -5 -6 -6 -6 -7 -7 -8 -8 -9 -9 -10 -10 -11 -12 -12 -12 -12 -13 -13 -14 -15 -14 -14 -14 -15 -15 -16 -16 -16 -15 -16 -16 -16 -16 -16 -17 -17 -17 -17 -17 -18 -18
-5 -6 -6 -6 -6 -7 -8 -8 -9 -9 -9 -10 -11 -11 -12 -12 -12 -12 -12 -13 -14 -15 -15 -15 -15 -16 -16 -16 -17 -16 -16 -16 -16 -16 -16 -16 -16 -17 -17 -17 -18 -18 -18 -18
-6 -7 -7 -7 -7 -8 -8 -9 -9 -10 -10 -11 -12 -12 -13 -12 -12 -12 -13 -14 -15 -15 -16 -15 -16 -16 -17 -17 -17 -16 -16 -17 -17 -17 -17 -17 -17 -17 -17 -17 -17 -18 -18 -19
-6 -7 -7 -7 -8 -10 -10 -10 -11 -11 -12 -11 -12 -13 -13 -14 -14 -14 -15 -15 -16 -16 -17 -16 -17 -18 -18 -18 -18 -18 -18 -18 -18 -18 -18 -18 -18 -18 -18 -18 -18 -17 -18 -18
-7 -8 -8 -9 -8 -8 -9 -10 -9 -9 -10 -11 -11 -12 -14 -14 -15 -16 -16 -16 -17 -17 -17 -18 -18 -19 -19 -20 -20 -20 -20 -20 -20 -20 -20 -20 -20 -20 -19 -19 -19 -19 -18 -18
-9 -9 -9 -9 -9 -9 -9 -9 -10 -10 -12 -12 -13 -13 -15 -15 -16 -17 -17 -18 -18 -19 -19 -20 -20 -20 -21 -21 -22 -22 -22 -22 -22 -22 -23 -22 -22 -22 -21 -21 -20 -20 -20 -19